Le Mars, IA

1:29 PM CDT on October 19, 2019 (GMT -0500)
Le Mars Municipal

Weather History for KLRJ - August, 2019

Change the Weather History Date:

Friday, August 23, 2019

  Actual Average Record
Temperature  
Mean Temperature 70 °F -  
Max Temperature 80 °F 83 °F 105 °F (2017)
Min Temperature 59 °F 60 °F 42 °F (1970)
Cooling Degree Days 4    
Growing Degree Days 20 (Base 50)    
Moisture  
Dew Point 59 °F    
Average Humidity 72    
Maximum Humidity 88    
Minimum Humidity 51    
Precipitation  
Precipitation 0.00 in - - ()
Sea Level Pressure  
Sea Level Pressure 30.11 in    
Wind  
Wind Speed 10 mph (ESE)    
Max Wind Speed 15 mph    
Max Gust Speed 21 mph    
Visibility 10 miles    
Events      
Averages and records for this station are not official NWS values.
T = Trace of Precipitation, MM = Missing Value Source: NWS Daily Summary

Daily Weather History Graph

Daily Weather History Graph

Search for Another Location

Airport or City:

Astronomy

Aug. 23, 2019 Rise Set
Actual Time 6:39 AM CDT 8:14 PM CDT
Civil Twilight 6:09 AM CDT 8:44 PM CDT
Nautical Twilight 5:33 AM CDT 9:20 PM CDT
Astronomical Twilight 4:54 AM CDT 9:58 PM CDT
Moon No Moon Rise 2:28 PM CDT (8/23)
Length of Visible Light 14h 34m
Length of Day
13h 34m
Waning Gibbous, 49% of the Moon is Illuminated
Aug 23
Waning Gibbous
Aug 30
New
Sep 5
First Quarter
Sep 13
Full
Sep 21
Last Quarter

Hourly Weather History & Observations

Time (CDT) Temp. Heat Index Dew Point Humidity Pressure Visibility Wind Dir Wind Speed Gust Speed Precip Events Conditions
12:15 AM 64.4 °F - 57.2 °F 77% 30.09 in 10.0 mi East 10.4 mph - N/A   Clear
12:35 AM 64.4 °F - 57.2 °F 77% 30.08 in 10.0 mi East 11.5 mph - N/A   Clear
12:55 AM 62.6 °F - 57.2 °F 82% 30.08 in 10.0 mi East 11.5 mph - N/A   Clear
1:15 AM 62.6 °F - 55.4 °F 77% 30.09 in 10.0 mi East 10.4 mph - N/A   Clear
1:35 AM 62.6 °F - 55.4 °F 77% 30.09 in 10.0 mi East 8.1 mph 13.8 mph N/A   Clear
1:55 AM 62.6 °F - 55.4 °F 77% 30.09 in 10.0 mi East 9.2 mph - N/A   Clear
2:15 AM 62.6 °F - 55.4 °F 77% 30.09 in 10.0 mi East 11.5 mph 17.3 mph N/A   Clear
2:35 AM 62.6 °F - 55.4 °F 77% 30.07 in 10.0 mi East 9.2 mph 17.3 mph N/A   Clear
2:55 AM 60.8 °F - 55.4 °F 82% 30.07 in 10.0 mi East 12.7 mph - N/A   Clear
3:15 AM 60.8 °F - 55.4 °F 82% 30.08 in 10.0 mi East 10.4 mph - N/A   Clear
3:35 AM 60.8 °F - 55.4 °F 82% 30.07 in 10.0 mi East 9.2 mph 16.1 mph N/A   Clear
3:55 AM 60.8 °F - 55.4 °F 82% 30.07 in 10.0 mi East 8.1 mph - N/A   Clear
4:15 AM 60.8 °F - 55.4 °F 82% 30.08 in 10.0 mi East 8.1 mph - N/A   Clear
4:35 AM 60.8 °F - 55.4 °F 82% 30.09 in 10.0 mi ENE 3.5 mph - N/A   Clear
4:55 AM 60.8 °F - 53.6 °F 77% 30.10 in 10.0 mi Calm Calm - N/A   Clear
5:15 AM 59.0 °F - 55.4 °F 88% 30.11 in 10.0 mi East 4.6 mph - N/A   Clear
5:35 AM 59.0 °F - 55.4 °F 88% 30.10 in 10.0 mi East 8.1 mph - N/A   Clear
5:55 AM 59.0 °F - 53.6 °F 82% 30.10 in 10.0 mi East 8.1 mph - N/A   Clear
6:15 AM 59.0 °F - 53.6 °F 82% 30.11 in 10.0 mi East 10.4 mph - N/A   Clear
6:35 AM 59.0 °F - 53.6 °F 82% 30.11 in 10.0 mi ESE 8.1 mph - N/A   Clear
6:55 AM 59.0 °F - 53.6 °F 82% 30.11 in 10.0 mi East 10.4 mph - N/A   Clear
7:15 AM 59.0 °F - 53.6 °F 82% 30.11 in 10.0 mi ESE 11.5 mph - N/A   Clear
7:55 AM 60.8 °F - 55.4 °F 82% 30.11 in 10.0 mi East 12.7 mph - N/A   Clear
8:15 AM 62.6 °F - 55.4 °F 77% 30.12 in 10.0 mi East 8.1 mph - N/A   Clear
8:35 AM 62.6 °F - 57.2 °F 82% 30.12 in 10.0 mi East 9.2 mph - N/A   Clear
8:55 AM 64.4 °F - 57.2 °F 77% 30.13 in 10.0 mi ESE 8.1 mph - N/A   Clear
9:15 AM 66.2 °F - 59.0 °F 78% 30.13 in 10.0 mi ESE 10.4 mph - N/A   Clear
9:35 AM 68.0 °F - 59.0 °F 73% 30.13 in 10.0 mi ESE 11.5 mph - N/A   Clear
9:55 AM 68.0 °F - 59.0 °F 73% 30.14 in 10.0 mi SE 9.2 mph - N/A   Clear
10:15 AM 69.8 °F - 60.8 °F 73% 30.14 in 10.0 mi SE 10.4 mph - N/A   Clear
10:35 AM 71.6 °F - 60.8 °F 69% 30.14 in 10.0 mi ESE 11.5 mph - N/A   Clear
10:55 AM 73.4 °F - 60.8 °F 65% 30.14 in 10.0 mi SE 11.5 mph - N/A   Clear
11:15 AM 73.4 °F - 60.8 °F 65% 30.14 in 10.0 mi ESE 12.7 mph - N/A   Clear
11:35 AM 75.2 °F - 60.8 °F 61% 30.14 in 10.0 mi ESE 10.4 mph 16.1 mph N/A   Clear
11:55 AM 75.2 °F - 60.8 °F 61% 30.14 in 10.0 mi ESE 15.0 mph - N/A   Clear
12:15 PM 75.2 °F - 62.6 °F 65% 30.13 in 10.0 mi ESE 9.2 mph - N/A   Clear
12:35 PM 75.2 °F - 62.6 °F 65% 30.13 in 10.0 mi ESE 10.4 mph - N/A   Clear
12:55 PM 77.0 °F - 62.6 °F 61% 30.13 in 10.0 mi ESE 10.4 mph 17.3 mph N/A   Clear
1:15 PM 77.0 °F - 62.6 °F 61% 30.12 in 10.0 mi SSE 12.7 mph - N/A   Clear
1:35 PM 77.0 °F - 62.6 °F 61% 30.12 in 10.0 mi SE 13.8 mph - N/A   Partly Cloudy
1:55 PM 78.8 °F - 62.6 °F 57% 30.11 in 10.0 mi North - - N/A   Partly Cloudy
2:15 PM 78.8 °F - 62.6 °F 57% 30.11 in 10.0 mi ESE 12.7 mph - N/A   Clear
2:35 PM 78.8 °F - 60.8 °F 54% 30.11 in 10.0 mi SE 15.0 mph - N/A   Clear
2:55 PM 78.8 °F - 62.6 °F 57% 30.11 in 10.0 mi SE 12.7 mph - N/A   Clear
3:15 PM 78.8 °F - 60.8 °F 54% 30.10 in 10.0 mi SE 15.0 mph - N/A   Clear
3:35 PM 78.8 °F - 60.8 °F 54% 30.10 in 10.0 mi ESE 12.7 mph 20.7 mph N/A   Clear
3:55 PM 78.8 °F - 59.0 °F 51% 30.10 in 10.0 mi ESE 8.1 mph 18.4 mph N/A   Clear
4:15 PM 78.8 °F - 59.0 °F 51% 30.10 in 10.0 mi SE 11.5 mph - N/A   Clear
4:35 PM 80.6 °F 81.5 °F 60.8 °F 51% 30.09 in 10.0 mi ESE 10.4 mph - N/A   Clear
4:55 PM 78.8 °F - 60.8 °F 54% 30.09 in 10.0 mi ESE 13.8 mph - N/A   Clear
5:15 PM 78.8 °F - 62.6 °F 57% 30.09 in 10.0 mi ESE 13.8 mph - N/A   Clear
5:35 PM 78.8 °F - 60.8 °F 54% 30.10 in 10.0 mi ESE 11.5 mph 19.6 mph N/A   Clear
5:55 PM 78.8 °F - 60.8 °F 54% 30.10 in 10.0 mi ESE 11.5 mph - N/A   Clear
6:15 PM 77.0 °F - 60.8 °F 57% 30.09 in 10.0 mi ESE 10.4 mph 16.1 mph N/A   Clear
6:35 PM 77.0 °F - 62.6 °F 61% 30.09 in 10.0 mi ESE 10.4 mph 16.1 mph N/A   Clear
6:55 PM 77.0 °F - 62.6 °F 61% 30.09 in 10.0 mi East 6.9 mph - N/A   Clear
7:15 PM 75.2 °F - 62.6 °F 65% 30.10 in 10.0 mi ESE 8.1 mph - N/A   Clear
7:35 PM 75.2 °F - 64.4 °F 69% 30.10 in 10.0 mi East 10.4 mph - N/A   Clear
7:55 PM 73.4 °F - 64.4 °F 73% 30.11 in 10.0 mi ESE 6.9 mph 12.7 mph N/A   Clear
8:15 PM 71.6 °F - 64.4 °F 78% 30.12 in 10.0 mi ESE 6.9 mph - N/A   Clear
8:35 PM 71.6 °F - 64.4 °F 78% 30.11 in 10.0 mi ESE 9.2 mph - N/A   Clear
8:55 PM 69.8 °F - 64.4 °F 83% 30.12 in 10.0 mi East 10.4 mph - N/A   Clear
9:15 PM 69.8 °F - 64.4 °F 83% 30.12 in 10.0 mi East 10.4 mph - N/A   Clear
9:35 PM 69.8 °F - 64.4 °F 83% 30.11 in 10.0 mi East 12.7 mph - N/A   Clear
9:55 PM 69.8 °F - 62.6 °F 78% 30.12 in 10.0 mi East 11.5 mph 18.4 mph N/A   Clear
10:15 PM 68.0 °F - 62.6 °F 83% 30.12 in 10.0 mi ESE 10.4 mph - N/A   Clear
10:35 PM 68.0 °F - 62.6 °F 83% 30.13 in 10.0 mi ESE 10.4 mph - N/A   Clear
10:55 PM 66.2 °F - 62.6 °F 88% 30.13 in 10.0 mi ESE 10.4 mph - N/A   Clear
11:15 PM 66.2 °F - 62.6 °F 88% 30.14 in 10.0 mi ESE 10.4 mph 16.1 mph N/A   Clear
11:35 PM 66.2 °F - 60.8 °F 83% 30.15 in - ESE 10.4 mph - N/A   Clear
11:55 PM 66.2 °F - 60.8 °F 83% 30.14 in 10.0 mi ESE 10.4 mph - N/A   Clear